DL4FEU Weather Reports


time (UTC)temp
F
wind
direction
speed
knots
gust
knots
rain 1hr
in
rain 24hr
in
rain mn
in
humidity
%
barometer
mb
20260502163042 79 214 2.6 0.0 0.00 0.00 0.00 36 1019.7
20260502161518 79 182 1.7 0.0 0.00 0.00 0.00 37 1020.0
20260502151512 78 206 1.7 0.0 0.00 0.00 0.00 36 1020.6
20260502130105 78 225 1.7 0.0 0.00 0.00 0.00 33 1022.7
20260502123057 76 189 1.7 0.0 0.00 0.00 0.00 36 1023.1
20260502121547 77 211 3.5 0.0 0.00 0.00 0.00 34 1023.3
20260502114546 77 211 1.7 0.0 0.00 0.00 0.00 37 1023.7
20260502113036 76 214 3.5 0.0 0.00 0.00 0.00 36 1023.9
20260502111533 75 165 0.9 0.0 0.00 0.00 0.00 38 1024.2
20260502110033 75 211 0.9 0.0 0.00 0.00 0.00 38 1024.4
20260502104526 74 208 0.0 0.0 0.00 0.00 0.00 38 1024.6
20260502103024 73 219 0.9 0.0 0.00 0.00 0.00 38 1024.7
20260502101520 73 244 0.9 0.0 0.00 0.00 0.00 38 1024.9
20260502091509 72 212 0.9 0.0 0.00 0.00 0.00 38 1025.8
20260502070050 63 17 0.0 0.0 0.00 0.00 0.00 59 1026.4
20260502064544 61 17 0.0 0.0 0.00 0.00 0.00 62 1026.7
20260502063036 58 17 0.0 0.0 0.00 0.00 0.00 66 1026.6
20260502061529 55 96 0.9 0.0 0.00 0.00 0.00 69 1026.6
20260502060025 53 58 0.0 0.0 0.00 0.00 0.00 72 1026.7
20260502054520 50 58 2.6 0.0 0.00 0.00 0.00 75 1026.7
20260502053015 49 54 3.5 0.0 0.00 0.00 0.00 76 1026.7
20260502051516 48 57 3.5 0.0 0.00 0.00 0.00 77 1026.7
20260502050007 46 59 4.3 0.0 0.00 0.00 0.00 79 1026.5
20260502044502 45 60 3.5 0.0 0.00 0.00 0.00 80 1026.5
20260502043001 45 59 4.3 0.0 0.00 0.00 0.00 79 1026.6
20260502041600 46 59 3.5 0.0 0.00 0.00 0.00 79 1026.5
20260502040058 46 57 4.3 0.0 0.00 0.00 0.00 79 1026.6
20260502034557 46 57 4.3 0.0 0.00 0.00 0.00 79 1026.6
20260502033056 46 55 5.2 0.0 0.00 0.00 0.00 78 1026.6
20260502031554 46 54 4.3 0.0 0.00 0.00 0.00 78 1026.6
20260502030054 46 54 5.2 0.0 0.00 0.00 0.00 78 1026.6
20260502024551 47 54 4.3 0.0 0.00 0.00 0.00 77 1026.7
20260502023050 47 52 5.2 0.0 0.00 0.00 0.00 77 1026.8
20260502021550 47 54 5.2 0.0 0.00 0.00 0.00 76 1026.7
20260502020047 47 53 5.2 0.0 0.00 0.00 0.00 76 1026.7
20260502014554 47 53 5.2 0.0 0.00 0.00 0.00 76 1026.8
20260502013041 48 49 4.3 0.0 0.00 0.00 0.00 75 1027.0
20260502011545 48 49 4.3 0.0 0.00 0.00 0.00 75 1027.1
20260502010039 49 54 4.3 0.0 0.00 0.00 0.00 74 1027.1
20260502004535 49 56 4.3 0.0 0.00 0.00 0.00 74 1027.3
20260502003033 49 54 5.2 0.0 0.00 0.00 0.00 74 1027.3
20260502001530 49 49 4.3 0.0 0.00 0.00 0.00 73 1027.5
20260502000044 50 48 4.3 0.0 0.00 0.00 0.00 73 1027.5
20260501234527 50 50 4.3 0.0 0.00 0.00 0.00 73 1027.6
20260501233024 50 56 4.3 0.0 0.00 0.00 0.00 72 1027.6
20260501231525 50 56 2.6 0.0 0.00 0.00 0.00 72 1027.7
20260501230024 51 57 2.6 0.0 0.00 0.00 0.00 71 1027.7
20260501224517 51 57 3.5 0.0 0.00 0.00 0.00 71 1027.6
20260501223014 51 55 3.5 0.0 0.00 0.00 0.00 70 1027.8
20260501221520 52 55 3.5 0.0 0.00 0.00 0.00 70 1027.7
20260501220013 52 55 3.5 0.0 0.00 0.00 0.00 69 1027.6
20260501214512 53 53 3.5 0.0 0.00 0.00 0.00 68 1027.7
20260501213009 53 52 2.6 0.0 0.00 0.00 0.00 67 1027.6
20260501211508 54 52 2.6 0.0 0.00 0.00 0.00 66 1027.5
20260501210008 54 51 0.9 0.0 0.00 0.00 0.00 65 1027.6
20260501204507 55 51 1.7 0.0 0.00 0.00 0.00 64 1027.5
20260501203007 55 51 1.7 0.0 0.00 0.00 0.00 63 1027.4
20260501201506 56 51 2.6 0.0 0.00 0.00 0.00 62 1027.5
20260501200006 57 50 3.5 0.0 0.00 0.00 0.00 60 1027.3
20260501194504 58 49 3.5 0.0 0.00 0.00 0.00 58 1027.4
20260501193009 59 49 3.5 0.0 0.00 0.00 0.00 56 1027.4
20260501191503 61 49 1.7 0.0 0.00 0.00 0.00 53 1027.3
20260501190003 63 48 0.0 0.0 0.00 0.00 0.00 49 1027.2
20260501184504 66 48 0.0 0.0 0.00 0.00 0.00 46 1027.2
20260501183004 68 48 0.9 0.0 0.00 0.00 0.00 41 1027.1
20260501181502 69 48 1.7 0.0 0.00 0.00 0.00 37 1026.9
20260501180003 70 57 3.5 0.0 0.00 0.00 0.00 37 1027.0
20260501174559 71 73 1.7 0.0 0.00 0.00 0.00 36 1026.8
20260501173100 71 76 3.5 0.0 0.00 0.00 0.00 35 1026.8
20260501171558 72 49 2.6 0.0 0.00 0.00 0.00 34 1026.9
20260501170058 73 49 3.5 0.0 0.00 0.00 0.00 33 1027.1
20260501164556 73 35 2.6 0.0 0.00 0.00 0.00 33 1027.2